Preview of NWS' New Version of Forecast
This preview is not operational and should not be used for support decisions.

Regional Weather Roundup (RWR)

Issued by National Weather Service (NWS)

                            
000
ASUS43 KBIS 220002
RWRND 

NORTH DAKOTA REGIONAL WEATHER ROUNDUP
NATIONAL WEATHER SERVICE BISMARCK ND
700 PM CDT SUN JUL 21 2019

NOTE: "FAIR" INDICATES FEW OR NO CLOUDS BELOW 12,000 FEET WITH NO
SIGNIFICANT WEATHER AND/OR OBSTRUCTIONS TO VISIBILITY.


NDZ001>003-009>011-017-220100-
NORTHWEST NORTH DAKOTA
  
CITY           SKY/WX    TMP DP  RH WIND       PRES   REMARKS
WILLISTON      SUNNY     79  47  32 NW9       30.24S                  
6HR MIN TEMP:  75; 6HR MAX TEMP:  81;                                

MINOT          MOSUNNY   72  56  57 NE9       30.22S                  
$$
 
NDZ018>021-031>035-040>046-220100-
SOUTHWEST NORTH DAKOTA
  
CITY           SKY/WX    TMP DP  RH WIND       PRES   REMARKS
BISMARCK       MOSUNNY   68  60  75 S5        30.24F                  
6HR MIN TEMP:  64; 6HR MAX TEMP:  78; 6HR PCP:  0.12;                

DICKINSON      MOSUNNY   71  58  63 SW8       30.24S                  
GARRISON         N/A     73  55  53 NE5       30.23S                  
6HR MIN TEMP:  68; 6HR MAX TEMP:  77; 6HR PCP:  0.01;                

HETTINGER ARPT SUNNY     72  50  45 W3        30.27F                  
$$
 
NDZ004>008-012>016-024-026-027-054-220100-
NORTHEAST NORTH DAKOTA
  
CITY           SKY/WX    TMP DP  RH WIND       PRES   REMARKS
GRAND FORKS    MOSUNNY   74  48  39 N14       30.18R                  
DEVILS LAKE    MOSUNNY   72  52  49 NE12      30.23S                  
$$
 
NDZ022-023-025-028>030-036>039-047>053-220100-
SOUTHEAST NORTH DAKOTA
  
CITY           SKY/WX    TMP DP  RH WIND       PRES   REMARKS
FARGO          MOSUNNY   72  56  57 NW10      30.17R                  
6HR MIN TEMP:  72; 6HR MAX TEMP:  76;                                

JAMESTOWN      PTSUNNY   69  59  70 NW9       30.22S                  
$$